Home > Weather > Oakland > Past weeks

Flag for USA Past Weather in Oakland, California, USA — Yesterday and Last 2 Weeks

Now
74 °F

Sunny.


Feels Like: 77 °F
Forecast: 53 / 74 °F
Wind: 13 mph from Northwest

Location: Metro Oakland International Airport

Current Time: Jun 30, 2016 at 4:05:04 PM

Latest Report: Jun 30, 2016 at 2:53 PM


Visibility: 10 mi

Pressure: 29.85 "Hg

Humidity: 48%

Dew Point: 53 °F

Location of OaklandLocation

Past Weather in Oakland — Graph

°F

Oakland Temperature Yesterday

Maximum temperature yesterday: 63 °F (at 1:53 PM)
Minimum temperature yesterday: 55 °F (at 6:53 AM)
Average temperature yesterday: 58 °F

High & Low Weather Summary for the Past Weeks

 TemperatureHumidityPressure
High87 °F (Jun 19, 1:53 PM)84% (Jun 24, 12:53 AM)30.19 "Hg (Jun 24, 12:53 AM)
Low54 °F (Jun 27, 4:53 AM)17% (Jun 19, 1:53 PM)29.87 "Hg (Jun 30, 1:53 PM)
Average64 °F64%30.02 "Hg
* Reported Jun 15 1:53 PM — Jun 30 1:53 PM, Oakland, Weather by CustomWeather, © 2016

Note: Actual official high and low records may vary slightly from our data, if they occured in-between our weather recording intervals... More about our weather records

Advertising

Oakland Weather History for the Previous 24 Hours

Scroll right to see more
 ConditionsComfort  
Time TempWeatherWind HumidityBarometerVisibility
1:53 PM
Thu, Jun 30
70 °FSunny.15 mph53%29.87 "Hg10 mi
12:53 PM70 °FSunny.10 mph53%29.88 "Hg10 mi
11:53 AM66 °FPassing clouds.7 mph59%29.90 "Hg10 mi
10:53 AM63 °FPassing clouds.5 mph68%29.90 "Hg10 mi
9:53 AM60 °FPartly sunny.6 mph75%29.92 "Hg9 mi
8:53 AM58 °FLow clouds.3 mph78%29.93 "Hg9 mi
7:53 AM57 °FLow clouds.5 mph78%29.92 "Hg9 mi
6:53 AM58 °FOvercast.5 mph78%29.91 "Hg7 mi
5:53 AM57 °FPassing clouds.7 mph78%29.90 "Hg10 mi
4:53 AM57 °FOvercast.10 mph78%29.90 "Hg10 mi
3:53 AM57 °FOvercast.9 mph78%29.90 "Hg9 mi
2:53 AM58 °FOvercast.7 mph78%29.90 "Hg10 mi
1:53 AM57 °FPassing clouds.8 mph78%29.91 "Hg9 mi
12:53 AM58 °FPassing clouds.9 mph78%29.92 "Hg9 mi
11:53 PM
Wed, Jun 29
57 °FPassing clouds.10 mph78%29.93 "Hg9 mi
10:53 PM58 °FLow clouds.7 mph75%29.94 "Hg9 mi
9:53 PM57 °FLow clouds.No wind78%29.95 "Hg10 mi
8:53 PM57 °FLow clouds.3 mph78%29.96 "Hg10 mi
7:53 PM58 °FMostly cloudy.8 mph75%29.96 "Hg9 mi
6:53 PM59 °FMostly cloudy.15 mph72%29.96 "Hg10 mi
5:53 PM61 °FBroken clouds.16 mph67%29.96 "Hg10 mi
4:53 PM63 °FPassing clouds.18 mph65%29.97 "Hg10 mi
Weather by CustomWeather, © 2016

See weather overviewHow to use our weather pages